Find Starlink 31481

NORAD ID: 59541 Int'l Des: 2024-074 Owner: SPXS Country: US Constellation: starlink operational
LEOCIRCULAR

实时位置

正在加载3D地球...

关于 Starlink 31481

正在加载描述...

即将过境

Passes for default location (London). Set your location on the main map for personalized predictions.

高度历史

Loading altitude history...

两行轨道根数

1 59541U 24074H 26124.09903590 .00000385 00000-0 23537-4 0 9991
2 59541 43.0063 30.1567 0001332 280.3386 79.7316 15.27578264114492
Epoch: May 4, 2026 • Age: 11 hours

当前状态

高度 484.1 km
速度 7.63 km/s
星下点 29.62°N, 1.05°W
发射日期 Apr 18, 2024
运行时间 2 years
类型 internet

技术详情

分类 Payload
质量 730.00 kg
干质量 700.00 kg
总质量 730.00 kg
长度 0.30 m
直径 4.10 m
跨度 29.00 m
形状 Box + pan
制造商 SPXS
平台类型 Starlink V2M
阶段状态 In Orbit
所有者/国家 SPXS/US

Most Searched